Location: Chena
(64.8152°N, 147.9227°W)
Time: 07:40:52
(UTC+00:00)

N. Korean satellite - Pass Details

Date: 28 January 2021
Orbit: 451 x 502 km, 97.2° (Epoch: 08 March)

Event Time Altitude Azimuth Distance (km) Brightness Sun altitude
Rises 17:24:26 0° 16° (NNE) 2,535 10.1 -8.1°
Reaches altitude 10° 17:26:48 10° 1° (N) 1,643 9.0 -7.9°
Maximum altitude 17:29:34 22° 309° (NW) 1,068 7.7 -7.7°
Drops below altitude 10° 17:32:18 10° 257° (WSW) 1,616 8.8 -7.4°
Sets 17:34:37 0° 242° (WSW) 2,480 9.8 -7.2°
